Hourly Data Report for October 03, 2013

All times are specified in Local Standard Time (LST). Add 1 hour to adjust for Daylight Saving Time where and when it is observed.

QIKIQTARJUAQ A
NUNAVUT

67°32'48.000" N
64°01'54.000" W
5.50 m
2400577
YVM

Download Data

Hourly Data (October 2013)
Hourly Data Report for October 3, 2013
Temp Definition
°C
Dew Point Temp Definition
°C
Rel Hum Definition
%
Wind Dir Definition
10's deg

Wind Spd Definition
km/h
Visibility Definition
km
Stn Press Definition
kPa
Hmdx Definition


Wind Chill Definition


Weather Definition


TIME
00:00 Legend Double Dagger -2.7 -6.3 76 20 17 16.1 101.00   -8 LegendNANA
01:00 Legend Double Dagger -3.0 -6.1 79 18 15 16.1 101.01   -8 LegendNANA
02:00 Legend Double Dagger -2.6 -5.4 81 20 15 16.1 101.02   -8 LegendNANA
03:00 Legend Double Dagger -3.0 -6.3 78 18 21 16.1 101.03   -9 LegendNANA
04:00 Legend Double Dagger -3.0 -6.7 76 17 22 16.1 101.04   -9 LegendNANA
05:00 Legend Double Dagger -2.5 -6.0 77 18 21 16.1 101.07   -9 LegendNANA
06:00 Legend Double Dagger -1.9 -5.7 75 18 13 16.1 101.11   -6 LegendNANA
07:00 Legend Double Dagger -2.4 -6.1 76 20 9 16.1 101.15   -6 LegendNANA
08:00 Legend Double Dagger -1.9 -5.3 78 LegendMM 4 16.1 101.19   -3 LegendNANA
09:00 Legend Double Dagger -1.2 -4.5 78 15 9 16.1 101.21   -4 LegendNANA
10:00 Legend Double Dagger 0.1 -5.5 66 19 5 16.1 101.24     LegendNANA
11:00 Legend Double Dagger -0.2 -5.4 68   0 16.1 101.27     LegendNANA
12:00 Legend Double Dagger -0.6 -2.5 87 1 9 2.4 101.34   -4 LegendNANA
13:00 Legend Double Dagger 0.0 -3.5 77 35 18 16.1 101.37   -5 LegendNANA
14:00 Legend Double Dagger -0.1 -3.4 79 34 21 16.1 101.42   -6 LegendNANA
15:00 Legend Double Dagger -0.6 -4.1 78 31 18 16.1 101.51   -6 LegendNANA
16:00 Legend Double Dagger -0.7 -4.6 75 32 15 16.1 101.56   -5 LegendNANA
17:00 Legend Double Dagger -0.6 -4.7 74 36 9 16.1 101.59   -4 LegendNANA
18:00 Legend Double Dagger -0.5 -4.6 74 29 13 16.1 101.63   -5 LegendNANA
19:00 Legend Double Dagger -0.7 -3.7 80 30 17 16.1 101.66   -6 LegendNANA
20:00 Legend Double Dagger -1.6 -3.0 90 13 5 4.8 101.70   -3 LegendNANA
21:00 Legend Double Dagger -1.7 -3.6 87 16 8 11.3 101.71   -5 LegendNANA
22:00 Legend Double Dagger -2.6 -4.8 85 19 13 16.1 101.70   -7 LegendNANA
23:00 Legend Double Dagger -2.2 -5.9 76 18 21 16.1 101.70   -8 LegendNANA

Notes on Data Quality.

Legend

  • E = Estimated
  • M = Missing
  • NA = Not Available
  • ‡ = Partner data that is not subject to review by the National Climate Archives
Date modified: